Location: Newark
(41.0400°S, 62.7845°W)
Time: 19:46:15
(UTC+00:00)

Vanguard 2 - Pass Details

Date: 07 December 2021
Orbit: 553 x 2936 km, 32.9° (Epoch: 19 January)

Event Time Altitude Azimuth Distance (km) Brightness Sun altitude
Rises 03:22:32 0° 307° (NW) 6,444 12.0 -25.7°
Reaches altitude 10° 03:26:45 10° 311° (NW) 5,598 11.6 -25.8°
Maximum altitude 03:43:30 52° 20° (NNE) 3,366 10.3 -26.2°
Drops below altitude 10° 03:58:22 10° 90° (E) 5,034 11.6 -26.3°
Sets 04:01:54 0° 94° (E) 5,782 12.1 -26.3°
